Retour au catalogue

STARLINK-36970

ActifCommunicationsVLEO
NORAD 68071·PAYLOAD·🇺🇸 United States

Lancé Mar 4, 2026 depuis Vandenberg Space Force Base

Loading…

Prochains Passages (prochaines 24 heures)

TLE

FraisSource: CelesTrak SupGP

Époque: Sep 15, 2026, 03:24 UTC

1 68071C 26042C   26258.14215278  .00056728  00000+0  16755-2 0  2580
2 68071  53.1605  14.8997 0001036  72.4582 347.4649 15.34373582    19

Suivez STARLINK-36970 en temps réel avec AllMySat

Download on the App Store